"Time","Value","Approval","myLocation"
"2023-05-07 00:00",51.644,"Working","OW364"
"2023-05-07 01:00",51.708,"Working","OW364"
"2023-05-07 02:00",51.786,"Working","OW364"
"2023-05-07 03:00",51.826,"Working","OW364"
"2023-05-07 04:00",51.844,"Working","OW364"
"2023-05-07 05:00",51.662,"Working","OW364"
"2023-05-07 06:00",51.628,"Working","OW364"
"2023-05-07 07:00",51.608,"Working","OW364"
"2023-05-07 08:00",51.594,"Working","OW364"
"2023-05-07 09:00",51.584,"Working","OW364"
"2023-05-07 10:00",51.673,"Working","OW364"
"2023-05-07 11:00",51.686,"Working","OW364"
"2023-05-07 12:00",51.686,"Working","OW364"
"2023-05-07 13:00",51.607,"Working","OW364"
"2023-05-07 14:00",51.562,"Working","OW364"
"2023-05-07 15:00",51.546,"Working","OW364"
"2023-05-07 16:00",51.552,"Working","OW364"
"2023-05-07 17:00",51.619,"Working","OW364"
"2023-05-07 18:00",51.552,"Working","OW364"
"2023-05-07 19:00",51.749,"Working","OW364"
"2023-05-07 20:00",51.805,"Working","OW364"
"2023-05-07 21:00",51.621,"Working","OW364"
"2023-05-07 22:00",51.55,"Working","OW364"
"2023-05-07 23:00",51.522,"Working","OW364"
"2023-05-08 00:00",51.505,"Working","OW364"
"2023-05-08 01:00",51.477,"Working","OW364"
"2023-05-08 02:00",51.455,"Working","OW364"
"2023-05-08 03:00",51.547,"Working","OW364"
"2023-05-08 04:00",51.564,"Working","OW364"
"2023-05-08 05:00",51.566,"Working","OW364"
"2023-05-08 06:00",51.474,"Working","OW364"
"2023-05-08 07:00",51.438,"Working","OW364"
"2023-05-08 08:00",51.421,"Working","OW364"
"2023-05-08 09:00",51.41,"Working","OW364"
"2023-05-08 10:00",51.402,"Working","OW364"
"2023-05-08 11:00",51.393,"Working","OW364"
"2023-05-08 12:00",51.529,"Working","OW364"
"2023-05-08 13:00",51.574,"Working","OW364"
"2023-05-08 14:00",51.569,"Working","OW364"
"2023-05-08 15:00",51.415,"Working","OW364"
"2023-05-08 16:00",51.379,"Working","OW364"
"2023-05-08 17:00",51.381,"Working","OW364"
"2023-05-08 18:00",51.397,"Working","OW364"
"2023-05-08 19:00",51.454,"Working","OW364"
"2023-05-08 20:00",51.545,"Working","OW364"
"2023-05-08 21:00",51.584,"Working","OW364"
"2023-05-08 22:00",51.662,"Working","OW364"
"2023-05-08 23:00",51.49,"Working","OW364"
"2023-05-09 00:00",51.392,"Working","OW364"
"2023-05-09 01:00",51.435,"Working","OW364"
"2023-05-09 02:00",51.308,"Working","OW364"
"2023-05-09 03:00",51.501,"Working","OW364"
"2023-05-09 04:00",51.5,"Working","OW364"
"2023-05-09 05:00",51.519,"Working","OW364"
"2023-05-09 06:00",51.365,"Working","OW364"
"2023-05-09 07:00",51.296,"Working","OW364"
"2023-05-09 08:00",51.265,"Working","OW364"
"2023-05-09 09:00",51.251,"Working","OW364"
"2023-05-09 10:00",51.241,"Working","OW364"
"2023-05-09 11:00",51.323,"Working","OW364"
"2023-05-09 12:00",51.369,"Working","OW364"
"2023-05-09 13:00",51.379,"Working","OW364"
"2023-05-09 14:00",51.315,"Working","OW364"
"2023-05-09 15:00",51.242,"Working","OW364"
"2023-05-09 16:00",51.25,"Working","OW364"
"2023-05-09 17:00",51.246,"Working","OW364"
"2023-05-09 18:00",51.225,"Working","OW364"
"2023-05-09 19:00",51.442,"Working","OW364"
"2023-05-09 20:00",51.498,"Working","OW364"
"2023-05-09 21:00",51.48,"Working","OW364"
"2023-05-09 22:00",51.241,"Working","OW364"
"2023-05-09 23:00",51.219,"Working","OW364"
"2023-05-10 00:00",51.32,"Working","OW364"
"2023-05-10 01:00",51.305,"Working","OW364"
"2023-05-10 02:00",51.211,"Working","OW364"
"2023-05-10 03:00",51.38,"Working","OW364"
"2023-05-10 04:00",51.408,"Working","OW364"
"2023-05-10 05:00",51.482,"Working","OW364"
"2023-05-10 06:00",51.314,"Working","OW364"
"2023-05-10 07:00",51.176,"Working","OW364"
"2023-05-10 08:00",51.162,"Working","OW364"
"2023-05-10 09:00",51.151,"Working","OW364"
"2023-05-10 10:00",51.146,"Working","OW364"
"2023-05-10 11:00",51.14,"Working","OW364"
"2023-05-10 12:00",51.31,"Working","OW364"
"2023-05-10 13:00",51.348,"Working","OW364"
"2023-05-10 14:00",51.365,"Working","OW364"
"2023-05-10 15:00",51.206,"Working","OW364"
"2023-05-10 16:00",51.21,"Working","OW364"
"2023-05-10 17:00",51.141,"Working","OW364"
"2023-05-10 18:00",51.148,"Working","OW364"
"2023-05-10 19:00",51.303,"Working","OW364"
"2023-05-10 20:00",51.27,"Working","OW364"
"2023-05-10 21:00",51.285,"Working","OW364"
"2023-05-10 22:00",51.284,"Working","OW364"
"2023-05-10 23:00",51.157,"Working","OW364"
"2023-05-11 00:00",51.112,"Working","OW364"
"2023-05-11 01:00",51.102,"Working","OW364"
"2023-05-11 02:00",51.1,"Working","OW364"
"2023-05-11 03:00",51.27,"Working","OW364"
"2023-05-11 04:00",51.311,"Working","OW364"
"2023-05-11 05:00",51.158,"Working","OW364"
"2023-05-11 06:00",51.138,"Working","OW364"
"2023-05-11 07:00",51.114,"Working","OW364"
"2023-05-11 08:00",51.11,"Working","OW364"
"2023-05-11 09:00",51.104,"Working","OW364"
"2023-05-11 10:00",51.183,"Working","OW364"
"2023-05-11 11:00",51.237,"Working","OW364"
"2023-05-11 12:00",51.251,"Working","OW364"
"2023-05-11 13:00",51.135,"Working","OW364"
"2023-05-11 14:00",51.119,"Working","OW364"
"2023-05-11 15:00",51.109,"Working","OW364"
"2023-05-11 16:00",51.126,"Working","OW364"
"2023-05-11 17:00",51.093,"Working","OW364"
"2023-05-11 18:00",51.091,"Working","OW364"
"2023-05-11 19:00",51.398,"Working","OW364"
"2023-05-11 20:00",51.455,"Working","OW364"
"2023-05-11 21:00",51.273,"Working","OW364"
"2023-05-11 22:00",51.21,"Working","OW364"
"2023-05-11 23:00",51.132,"Working","OW364"
"2023-05-12 00:00",51.192,"Working","OW364"
"2023-05-12 01:00",51.288,"Working","OW364"
"2023-05-12 02:00",51.326,"Working","OW364"
"2023-05-12 03:00",51.268,"Working","OW364"
"2023-05-12 04:00",51.212,"Working","OW364"
"2023-05-12 05:00",51.152,"Working","OW364"
"2023-05-12 06:00",51.118,"Working","OW364"
"2023-05-12 07:00",51.13,"Working","OW364"
"2023-05-12 08:00",51.129,"Working","OW364"
"2023-05-12 09:00",51.123,"Working","OW364"
"2023-05-12 10:00",51.295,"Working","OW364"
"2023-05-12 11:00",51.335,"Working","OW364"
"2023-05-12 12:00",51.174,"Working","OW364"
"2023-05-12 13:00",51.14,"Working","OW364"
"2023-05-12 14:00",51.128,"Working","OW364"
"2023-05-12 15:00",51.194,"Working","OW364"
"2023-05-12 16:00",51.112,"Working","OW364"
"2023-05-12 17:00",51.107,"Working","OW364"
"2023-05-12 18:00",51.252,"Working","OW364"
"2023-05-12 19:00",51.401,"Working","OW364"
"2023-05-12 20:00",51.285,"Working","OW364"
"2023-05-12 21:00",51.176,"Working","OW364"
"2023-05-12 22:00",51.23,"Working","OW364"
"2023-05-12 23:00",51.205,"Working","OW364"
"2023-05-13 00:00",51.369,"Working","OW364"
"2023-05-13 01:00",51.368,"Working","OW364"
"2023-05-13 02:00",51.468,"Working","OW364"
"2023-05-13 03:00",51.205,"Working","OW364"
"2023-05-13 04:00",51.185,"Working","OW364"
"2023-05-13 05:00",51.14,"Working","OW364"
"2023-05-13 06:00",51.138,"Working","OW364"
"2023-05-13 07:00",51.137,"Working","OW364"
"2023-05-13 08:00",51.262,"Working","OW364"
"2023-05-13 09:00",51.297,"Working","OW364"
"2023-05-13 10:00",51.307,"Working","OW364"
"2023-05-13 11:00",51.152,"Working","OW364"
"2023-05-13 12:00",51.133,"Working","OW364"
"2023-05-13 13:00",51.127,"Working","OW364"
"2023-05-13 14:00",51.117,"Working","OW364"
"2023-05-13 15:00",51.138,"Working","OW364"
"2023-05-13 16:00",51.188,"Working","OW364"
"2023-05-13 17:00",51.367,"Working","OW364"
"2023-05-13 18:00",51.543,"Working","OW364"
"2023-05-13 19:00",51.22,"Working","OW364"
"2023-05-13 20:00",51.253,"Working","OW364"
"2023-05-13 21:00",51.15,"Working","OW364"
"2023-05-13 22:00",51.114,"Working","OW364"
"2023-05-13 23:00",51.112,"Working","OW364"
"2023-05-14 00:00",51.211,"Working","OW364"
"2023-05-14 01:00",51.339,"Working","OW364"
"2023-05-14 02:00",51.451,"Working","OW364"
"2023-05-14 03:00",51.201,"Working","OW364"
"2023-05-14 04:00",51.153,"Working","OW364"
"2023-05-14 05:00",51.112,"Working","OW364"
"2023-05-14 06:00",51.1,"Working","OW364"
"2023-05-14 07:00",51.095,"Working","OW364"
"2023-05-14 08:00",51.22,"Working","OW364"
"2023-05-14 09:00",51.31,"Working","OW364"
"2023-05-14 10:00",51.34,"Working","OW364"
"2023-05-14 11:00",51.184,"Working","OW364"
"2023-05-14 12:00",51.135,"Working","OW364"
"2023-05-14 13:00",51.146,"Working","OW364"
"2023-05-14 14:00",51.106,"Working","OW364"
"2023-05-14 15:00",51.098,"Working","OW364"
"2023-05-14 16:00",51.113,"Working","OW364"
"2023-05-14 17:00",51.461,"Working","OW364"
"2023-05-14 18:00",51.239,"Working","OW364"
"2023-05-14 19:00",51.242,"Working","OW364"
"2023-05-14 20:00",51.114,"Working","OW364"
"2023-05-14 21:00",51.131,"Working","OW364"
"2023-05-14 22:00",51.098,"Working","OW364"
"2023-05-14 23:00",51.183,"Working","OW364"
"2023-05-15 00:00",51.31,"Working","OW364"
"2023-05-15 01:00",51.292,"Working","OW364"
"2023-05-15 02:00",51.511,"Working","OW364"
"2023-05-15 03:00",51.193,"Working","OW364"
"2023-05-15 04:00",51.135,"Working","OW364"
"2023-05-15 05:00",51.11,"Working","OW364"
"2023-05-15 06:00",51.096,"Working","OW364"
"2023-05-15 07:00",51.177,"Working","OW364"
"2023-05-15 08:00",51.088,"Working","OW364"
"2023-05-15 09:00",51.143,"Working","OW364"
"2023-05-15 10:00",51.207,"Working","OW364"
"2023-05-15 11:00",51.225,"Working","OW364"
"2023-05-15 12:00",51.097,"Working","OW364"
"2023-05-15 13:00",51.092,"Working","OW364"
"2023-05-15 14:00",51.062,"Working","OW364"
"2023-05-15 15:00",51.05,"Working","OW364"
"2023-05-15 16:00",51.039,"Working","OW364"
"2023-05-15 17:00",51.19,"Working","OW364"
"2023-05-15 18:00",51.327,"Working","OW364"
"2023-05-15 19:00",51.437,"Working","OW364"
"2023-05-15 20:00",51.305,"Working","OW364"
"2023-05-15 21:00",51.186,"Working","OW364"
"2023-05-15 22:00",51.147,"Working","OW364"
"2023-05-15 23:00",51.174,"Working","OW364"
"2023-05-16 00:00",51.784,"Working","OW364"
"2023-05-16 01:00",51.473,"Working","OW364"
"2023-05-16 02:00",51.686,"Working","OW364"
"2023-05-16 03:00",51.718,"Working","OW364"
"2023-05-16 04:00",51.441,"Working","OW364"
"2023-05-16 05:00",51.434,"Working","OW364"
"2023-05-16 06:00",51.432,"Working","OW364"
"2023-05-16 07:00",51.493,"Working","OW364"
"2023-05-16 08:00",51.493,"Working","OW364"
"2023-05-16 09:00",51.593,"Working","OW364"
"2023-05-16 10:00",51.511,"Working","OW364"
"2023-05-16 11:00",51.52,"Working","OW364"
"2023-05-16 12:00",51.41,"Working","OW364"
"2023-05-16 13:00",51.391,"Working","OW364"
"2023-05-16 14:00",51.354,"Working","OW364"
"2023-05-16 15:00",51.363,"Working","OW364"
"2023-05-16 16:00",51.361,"Working","OW364"
"2023-05-16 17:00",51.464,"Working","OW364"
"2023-05-16 18:00",51.661,"Working","OW364"
"2023-05-16 19:00",51.751,"Working","OW364"
"2023-05-16 20:00",51.669,"Working","OW364"
"2023-05-16 21:00",51.529,"Working","OW364"
"2023-05-16 22:00",51.414,"Working","OW364"
"2023-05-16 23:00",51.407,"Working","OW364"
"2023-05-17 00:00",51.384,"Working","OW364"
"2023-05-17 01:00",51.394,"Working","OW364"
"2023-05-17 02:00",51.422,"Working","OW364"
"2023-05-17 03:00",51.628,"Working","OW364"
"2023-05-17 04:00",51.63,"Working","OW364"
"2023-05-17 05:00",51.49,"Working","OW364"
"2023-05-17 06:00",51.349,"Working","OW364"
"2023-05-17 07:00",51.306,"Working","OW364"
"2023-05-17 08:00",51.292,"Working","OW364"
"2023-05-17 09:00",51.283,"Working","OW364"
"2023-05-17 10:00",51.276,"Working","OW364"
"2023-05-17 11:00",51.463,"Working","OW364"
"2023-05-17 12:00",51.502,"Working","OW364"
"2023-05-17 13:00",51.366,"Working","OW364"
"2023-05-17 14:00",51.304,"Working","OW364"
"2023-05-17 15:00",51.282,"Working","OW364"
"2023-05-17 16:00",51.267,"Working","OW364"
"2023-05-17 17:00",51.274,"Working","OW364"
"2023-05-17 18:00",51.316,"Working","OW364"
"2023-05-17 19:00",51.638,"Working","OW364"
"2023-05-17 20:00",51.538,"Working","OW364"
"2023-05-17 21:00",51.322,"Working","OW364"
"2023-05-17 22:00",51.32,"Working","OW364"
"2023-05-17 23:00",51.271,"Working","OW364"
"2023-05-18 00:00",51.312,"Working","OW364"
"2023-05-18 01:00",51.324,"Working","OW364"
"2023-05-18 02:00",51.402,"Working","OW364"
"2023-05-18 03:00",51.428,"Working","OW364"
"2023-05-18 04:00",51.469,"Working","OW364"
"2023-05-18 05:00",51.41,"Working","OW364"
"2023-05-18 06:00",51.254,"Working","OW364"
"2023-05-18 07:00",51.222,"Working","OW364"
"2023-05-18 08:00",51.205,"Working","OW364"
"2023-05-18 09:00",51.196,"Working","OW364"
"2023-05-18 10:00",51.215,"Working","OW364"
"2023-05-18 11:00",51.315,"Working","OW364"
"2023-05-18 12:00",51.339,"Working","OW364"
"2023-05-18 13:00",51.264,"Working","OW364"
"2023-05-18 14:00",51.206,"Working","OW364"
"2023-05-18 15:00",51.21,"Working","OW364"
"2023-05-18 16:00",51.205,"Working","OW364"
"2023-05-18 17:00",51.2,"Working","OW364"
"2023-05-18 18:00",51.232,"Working","OW364"
"2023-05-18 19:00",51.364,"Working","OW364"
"2023-05-18 20:00",51.474,"Working","OW364"
"2023-05-18 21:00",51.467,"Working","OW364"
"2023-05-18 22:00",51.312,"Working","OW364"
"2023-05-18 23:00",51.223,"Working","OW364"
"2023-05-19 00:00",51.192,"Working","OW364"
"2023-05-19 01:00",51.148,"Working","OW364"
"2023-05-19 02:00",51.136,"Working","OW364"
"2023-05-19 03:00",51.171,"Working","OW364"
"2023-05-19 04:00",51.43,"Working","OW364"
"2023-05-19 05:00",51.334,"Working","OW364"
"2023-05-19 06:00",51.195,"Working","OW364"
"2023-05-19 07:00",51.165,"Working","OW364"
"2023-05-19 08:00",51.222,"Working","OW364"
"2023-05-19 09:00",51.147,"Working","OW364"
"2023-05-19 10:00",51.142,"Working","OW364"
"2023-05-19 11:00",51.143,"Working","OW364"
"2023-05-19 12:00",51.335,"Working","OW364"
"2023-05-19 13:00",51.372,"Working","OW364"
"2023-05-19 14:00",51.223,"Working","OW364"
"2023-05-19 15:00",51.205,"Working","OW364"
"2023-05-19 16:00",51.189,"Working","OW364"
"2023-05-19 17:00",51.179,"Working","OW364"
"2023-05-19 18:00",51.17,"Working","OW364"
"2023-05-19 19:00",51.26,"Working","OW364"
"2023-05-19 20:00",51.465,"Working","OW364"
"2023-05-19 21:00",51.27,"Working","OW364"
"2023-05-19 22:00",51.448,"Working","OW364"
"2023-05-19 23:00",51.313,"Working","OW364"
"2023-05-20 00:00",51.288,"Working","OW364"
"2023-05-20 01:00",51.17,"Working","OW364"
"2023-05-20 02:00",51.152,"Working","OW364"
"2023-05-20 03:00",51.213,"Working","OW364"
"2023-05-20 04:00",51.444,"Working","OW364"
"2023-05-20 05:00",51.298,"Working","OW364"
"2023-05-20 06:00",51.185,"Working","OW364"
"2023-05-20 07:00",51.15,"Working","OW364"
"2023-05-20 08:00",51.157,"Working","OW364"
"2023-05-20 09:00",51.154,"Working","OW364"
"2023-05-20 10:00",51.144,"Working","OW364"
"2023-05-20 11:00",51.147,"Working","OW364"
"2023-05-20 12:00",51.447,"Working","OW364"
"2023-05-20 13:00",51.38,"Working","OW364"
"2023-05-21 14:00",51.16,"Working","OW364"
"2023-05-21 15:00",51.129,"Working","OW364"
"2023-05-21 16:00",51.198,"Working","OW364"
"2023-05-21 17:00",51.133,"Working","OW364"
"2023-05-21 18:00",51.226,"Working","OW364"
"2023-05-21 19:00",51.274,"Working","OW364"
"2023-05-21 20:00",51.392,"Working","OW364"
"2023-05-21 21:00",51.44,"Working","OW364"
"2023-05-21 22:00",51.212,"Working","OW364"
"2023-05-21 23:00",51.174,"Working","OW364"
"2023-05-22 00:00",51.156,"Working","OW364"
"2023-05-22 01:00",51.193,"Working","OW364"
"2023-05-22 02:00",51.142,"Working","OW364"
"2023-05-22 03:00",51.203,"Working","OW364"
"2023-05-22 04:00",51.261,"Working","OW364"
"2023-05-22 05:00",51.278,"Working","OW364"
"2023-05-22 06:00",51.178,"Working","OW364"
"2023-05-22 07:00",51.124,"Working","OW364"
"2023-05-22 08:00",51.107,"Working","OW364"
"2023-05-22 09:00",51.098,"Working","OW364"
"2023-05-22 10:00",51.095,"Working","OW364"
"2023-05-22 11:00",51.23,"Working","OW364"
"2023-05-22 12:00",51.314,"Working","OW364"
"2023-05-22 13:00",51.344,"Working","OW364"
"2023-05-22 14:00",51.195,"Working","OW364"
"2023-05-22 15:00",51.158,"Working","OW364"
"2023-05-22 16:00",51.147,"Working","OW364"
"2023-05-22 17:00",51.2,"Working","OW364"
"2023-05-22 18:00",51.096,"Working","OW364"
"2023-05-22 19:00",51.235,"Working","OW364"
"2023-05-22 20:00",51.252,"Working","OW364"
"2023-05-22 21:00",51.307,"Working","OW364"
"2023-05-22 22:00",51.302,"Working","OW364"
"2023-05-22 23:00",51.191,"Working","OW364"
"2023-05-23 00:00",51.135,"Working","OW364"
"2023-05-23 01:00",51.247,"Working","OW364"
"2023-05-23 02:00",51.188,"Working","OW364"
"2023-05-23 03:00",51.114,"Working","OW364"
"2023-05-23 04:00",51.078,"Working","OW364"
"2023-05-23 05:00",51.273,"Working","OW364"
"2023-05-23 06:00",51.318,"Working","OW364"
"2023-05-23 07:00",51.164,"Working","OW364"
"2023-05-23 08:00",51.107,"Working","OW364"
"2023-05-23 09:00",51.082,"Working","OW364"
"2023-05-23 10:00",51.07,"Working","OW364"
"2023-05-23 11:00",51.063,"Working","OW364"
"2023-05-23 12:00",51.18,"Working","OW364"
"2023-05-23 13:00",51.221,"Working","OW364"
"2023-05-23 14:00",51.234,"Working","OW364"
"2023-05-23 15:00",51.108,"Working","OW364"
"2023-05-23 16:00",51.106,"Working","OW364"
"2023-05-23 17:00",51.093,"Working","OW364"
"2023-05-23 18:00",51.09,"Working","OW364"
"2023-05-23 19:00",51.162,"Working","OW364"
"2023-05-23 20:00",51.191,"Working","OW364"
"2023-05-23 21:00",51.307,"Working","OW364"
"2023-05-23 22:00",51.343,"Working","OW364"
"2023-05-23 23:00",51.289,"Working","OW364"
"2023-05-24 00:00",51.106,"Working","OW364"
"2023-05-24 01:00",51.083,"Working","OW364"
"2023-05-24 02:00",51.095,"Working","OW364"
"2023-05-24 03:00",51.09,"Working","OW364"
"2023-05-24 04:00",51.1,"Working","OW364"
"2023-05-24 05:00",51.212,"Working","OW364"
"2023-05-24 06:00",51.219,"Working","OW364"
"2023-05-24 07:00",51.083,"Working","OW364"
"2023-05-24 08:00",51.06,"Working","OW364"
"2023-05-24 09:00",51.05,"Working","OW364"
"2023-05-24 10:00",51.042,"Working","OW364"
"2023-05-24 11:00",51.09,"Working","OW364"
"2023-05-24 12:00",51.252,"Working","OW364"
"2023-05-24 13:00",51.285,"Working","OW364"
"2023-05-24 14:00",51.127,"Working","OW364"
"2023-05-24 15:00",51.096,"Working","OW364"
"2023-05-24 16:00",51.076,"Working","OW364"
"2023-05-24 17:00",51.038,"Working","OW364"
"2023-05-24 18:00",51.03,"Working","OW364"
"2023-05-24 19:00",51.019,"Working","OW364"
"2023-05-24 20:00",51.096,"Working","OW364"
"2023-05-24 21:00",51.188,"Working","OW364"
"2023-05-24 22:00",51.201,"Working","OW364"
"2023-05-24 23:00",51.087,"Working","OW364"
"2023-05-25 00:00",51.051,"Working","OW364"
"2023-05-25 01:00",51.015,"Working","OW364"
"2023-05-25 02:00",51.019,"Working","OW364"
"2023-05-25 03:00",50.987,"Working","OW364"
"2023-05-25 04:00",50.983,"Working","OW364"
"2023-05-25 05:00",50.987,"Working","OW364"
"2023-05-25 06:00",50.988,"Working","OW364"
"2023-05-25 07:00",51.172,"Working","OW364"
"2023-05-25 08:00",51.223,"Working","OW364"
"2023-05-25 09:00",51.057,"Working","OW364"
"2023-05-25 10:00",51.038,"Working","OW364"
"2023-05-25 11:00",51.003,"Working","OW364"
"2023-05-25 12:00",50.993,"Working","OW364"
"2023-05-25 13:00",50.989,"Working","OW364"
"2023-05-25 14:00",51.122,"Working","OW364"
"2023-05-25 15:00",51.009,"Working","OW364"
"2023-05-25 16:00",51.118,"Working","OW364"
"2023-05-25 17:00",51.165,"Working","OW364"
"2023-05-25 18:00",51.175,"Working","OW364"
"2023-05-25 19:00",51.038,"Working","OW364"
"2023-05-25 20:00",51.029,"Working","OW364"
"2023-05-25 21:00",51.08,"Working","OW364"
"2023-05-25 22:00",50.996,"Working","OW364"
"2023-05-25 23:00",51.074,"Working","OW364"
"2023-05-26 00:00",51.019,"Working","OW364"
"2023-05-26 01:00",51.08,"Working","OW364"
"2023-05-26 02:00",51.286,"Working","OW364"
"2023-05-26 03:00",51.358,"Working","OW364"
"2023-05-26 04:00",51.243,"Working","OW364"
"2023-05-26 05:00",51.05,"Working","OW364"
"2023-05-26 06:00",51.038,"Working","OW364"
"2023-05-26 07:00",51.031,"Working","OW364"
"2023-05-26 08:00",51.002,"Working","OW364"
"2023-05-26 09:00",50.997,"Working","OW364"
"2023-05-26 10:00",51.136,"Working","OW364"
"2023-05-26 11:00",51.168,"Working","OW364"
"2023-05-26 12:00",51.169,"Working","OW364"
"2023-05-26 13:00",51.044,"Working","OW364"
"2023-05-26 14:00",51.023,"Working","OW364"
"2023-05-26 15:00",51.062,"Working","OW364"
"2023-05-26 16:00",51.037,"Working","OW364"
"2023-05-26 17:00",51.031,"Working","OW364"
"2023-05-26 18:00",51.229,"Working","OW364"
"2023-05-26 19:00",51.257,"Working","OW364"
"2023-05-26 20:00",51.373,"Working","OW364"
"2023-05-26 21:00",51.175,"Working","OW364"
"2023-05-26 22:00",51.082,"Working","OW364"
"2023-05-26 23:00",51.057,"Working","OW364"
"2023-05-27 00:00",51.025,"Working","OW364"
"2023-05-27 01:00",51.032,"Working","OW364"
"2023-05-27 02:00",51.125,"Working","OW364"
"2023-05-27 03:00",51.2,"Working","OW364"
"2023-05-27 04:00",51.383,"Working","OW364"
"2023-05-27 05:00",51.158,"Working","OW364"
"2023-05-27 06:00",51.105,"Working","OW364"
"2023-05-27 07:00",51.121,"Working","OW364"
"2023-05-27 08:00",51.079,"Working","OW364"
"2023-05-27 09:00",51.084,"Working","OW364"
"2023-05-27 10:00",51.056,"Working","OW364"
"2023-05-27 11:00",51.258,"Working","OW364"
"2023-05-27 12:00",51.308,"Working","OW364"
"2023-05-27 13:00",51.124,"Working","OW364"
"2023-05-27 14:00",51.095,"Working","OW364"
"2023-05-27 15:00",51.125,"Working","OW364"
"2023-05-27 16:00",51.104,"Working","OW364"
"2023-05-27 17:00",51.114,"Working","OW364"
"2023-05-27 18:00",51.232,"Working","OW364"
"2023-05-27 19:00",51.276,"Working","OW364"
"2023-05-27 20:00",51.284,"Working","OW364"
"2023-05-27 21:00",51.366,"Working","OW364"
"2023-05-27 22:00",51.182,"Working","OW364"
"2023-05-27 23:00",51.098,"Working","OW364"
"2023-05-28 00:00",51.115,"Working","OW364"
"2023-05-28 01:00",51.12,"Working","OW364"
"2023-05-28 02:00",51.115,"Working","OW364"
"2023-05-28 03:00",51.388,"Working","OW364"
"2023-05-28 04:00",51.369,"Working","OW364"
"2023-05-28 05:00",51.281,"Working","OW364"
"2023-05-28 06:00",51.198,"Working","OW364"
"2023-05-28 07:00",51.149,"Working","OW364"
"2023-05-28 08:00",51.143,"Working","OW364"
"2023-05-28 09:00",51.158,"Working","OW364"
"2023-05-28 10:00",51.132,"Working","OW364"
"2023-05-28 11:00",51.131,"Working","OW364"
"2023-05-28 12:00",51.275,"Working","OW364"
"2023-05-28 13:00",51.307,"Working","OW364"
"2023-05-28 14:00",51.174,"Working","OW364"
"2023-05-28 15:00",51.16,"Working","OW364"
"2023-05-28 16:00",51.154,"Working","OW364"
"2023-05-28 17:00",51.176,"Working","OW364"
"2023-05-28 18:00",51.183,"Working","OW364"
"2023-05-28 19:00",51.17,"Working","OW364"
"2023-05-28 20:00",51.329,"Working","OW364"
"2023-05-28 21:00",51.374,"Working","OW364"
"2023-05-28 22:00",51.412,"Working","OW364"
"2023-05-28 23:00",51.367,"Working","OW364"
"2023-05-29 00:00",51.203,"Working","OW364"
"2023-05-29 01:00",51.189,"Working","OW364"
"2023-05-29 02:00",51.181,"Working","OW364"
"2023-05-29 03:00",51.175,"Working","OW364"
"2023-05-29 04:00",51.151,"Working","OW364"
"2023-05-29 05:00",51.151,"Working","OW364"
"2023-05-29 06:00",51.153,"Working","OW364"
"2023-05-29 07:00",51.308,"Working","OW364"
"2023-05-29 08:00",51.339,"Working","OW364"
"2023-05-29 09:00",51.236,"Working","OW364"
"2023-05-29 10:00",51.204,"Working","OW364"
"2023-05-29 11:00",51.194,"Working","OW364"
"2023-05-29 12:00",51.192,"Working","OW364"
"2023-05-29 13:00",51.192,"Working","OW364"
"2023-05-29 14:00",51.232,"Working","OW364"
"2023-05-29 15:00",51.317,"Working","OW364"
"2023-05-29 16:00",51.565,"Working","OW364"
"2023-05-29 17:00",51.723,"Working","OW364"
"2023-05-29 18:00",51.328,"Working","OW364"
"2023-05-29 19:00",51.364,"Working","OW364"
"2023-05-29 20:00",51.34,"Working","OW364"
"2023-05-29 21:00",51.381,"Working","OW364"
"2023-05-29 22:00",51.353,"Working","OW364"
"2023-05-29 23:00",51.365,"Working","OW364"
"2023-05-30 00:00",51.351,"Working","OW364"
"2023-05-30 01:00",51.506,"Working","OW364"
"2023-05-30 02:00",51.443,"Working","OW364"
"2023-05-30 03:00",51.388,"Working","OW364"
"2023-05-30 04:00",51.364,"Working","OW364"
"2023-05-30 05:00",51.364,"Working","OW364"